owner,sensor,date,latitude,longitude,relative_humidity,qcFlag 
DISL,ioos:station:DISL:BSCA:1,2017-05-01T00:00:00Z,30.3288,-87.8293,91.3,1111122 
DISL,ioos:station:DISL:BSCA:1,2017-05-01T00:30:00Z,30.3288,-87.8293,94.4,1111122 
DISL,ioos:station:DISL:BSCA:1,2017-05-01T01:00:00Z,30.3288,-87.8293,94.1,1111122 
DISL,ioos:station:DISL:BSCA:1,2017-05-01T01:30:00Z,30.3288,-87.8293,94.8,1111122 
DISL,ioos:station:DISL:BSCA:1,2017-05-01T02:00:00Z,30.3288,-87.8293,93.7,1111122 
DISL,ioos:station:DISL:BSCA:1,2017-05-01T02:30:00Z,30.3288,-87.8293,94.2,1111122 
DISL,ioos:station:DISL:BSCA:1,2017-05-01T03:00:00Z,30.3288,-87.8293,96.3,1111122 
DISL,ioos:station:DISL:BSCA:1,2017-05-01T03:30:00Z,30.3288,-87.8293,95.3,1111122 
DISL,ioos:station:DISL:BSCA:1,2017-05-01T04:00:00Z,30.3288,-87.8293,94.4,1111122 
DISL,ioos:station:DISL:BSCA:1,2017-05-01T04:30:00Z,30.3288,-87.8293,90.3,1111122 
DISL,ioos:station:DISL:BSCA:1,2017-05-01T05:00:00Z,30.3288,-87.8293,91.2,1111122 
DISL,ioos:station:DISL:BSCA:1,2017-05-01T05:30:00Z,30.3288,-87.8293,91.4,1111122 
DISL,ioos:station:DISL:BSCA:1,2017-05-01T06:00:00Z,30.3288,-87.8293,91.1,1111122 
DISL,ioos:station:DISL:BSCA:1,2017-05-01T06:30:00Z,30.3288,-87.8293,92.1,1111122 
DISL,ioos:station:DISL:BSCA:1,2017-05-01T07:00:00Z,30.3288,-87.8293,92.4,1111122 
DISL,ioos:station:DISL:BSCA:1,2017-05-01T07:30:00Z,30.3288,-87.8293,92.5,1111122 
DISL,ioos:station:DISL:BSCA:1,2017-05-01T08:00:00Z,30.3288,-87.8293,92.4,1111122 
DISL,ioos:station:DISL:BSCA:1,2017-05-01T08:30:00Z,30.3288,-87.8293,92.8,1111122 
DISL,ioos:station:DISL:BSCA:1,2017-05-01T09:00:00Z,30.3288,-87.8293,96.6,1111122 
DISL,ioos:station:DISL:BSCA:1,2017-05-01T09:30:00Z,30.3288,-87.8293,85.4,1111122 
DISL,ioos:station:DISL:BSCA:1,2017-05-01T10:00:00Z,30.3288,-87.8293,84.9,1111122 
DISL,ioos:station:DISL:BSCA:1,2017-05-01T10:30:00Z,30.3288,-87.8293,81.7,1111122 
DISL,ioos:station:DISL:BSCA:1,2017-05-01T11:00:00Z,30.3288,-87.8293,83.1,1111122 
DISL,ioos:station:DISL:BSCA:1,2017-05-01T11:30:00Z,30.3288,-87.8293,76.54,1111122 
DISL,ioos:station:DISL:BSCA:1,2017-05-01T12:00:00Z,30.3288,-87.8293,81.4,1111122 
DISL,ioos:station:DISL:BSCA:1,2017-05-01T12:30:00Z,30.3288,-87.8293,77.63,1111122 
DISL,ioos:station:DISL:BSCA:1,2017-05-01T13:00:00Z,30.3288,-87.8293,70.71,1111122 
DISL,ioos:station:DISL:BSCA:1,2017-05-01T13:30:00Z,30.3288,-87.8293,68.41,1111122 
DISL,ioos:station:DISL:BSCA:1,2017-05-01T14:00:00Z,30.3288,-87.8293,67.42,1111122 
DISL,ioos:station:DISL:BSCA:1,2017-05-01T14:30:00Z,30.3288,-87.8293,66.47,1111122 
DISL,ioos:station:DISL:BSCA:1,2017-05-01T15:00:00Z,30.3288,-87.8293,58.3,1111122 
DISL,ioos:station:DISL:BSCA:1,2017-05-01T15:30:00Z,30.3288,-87.8293,57.71,1111122 
DISL,ioos:station:DISL:BSCA:1,2017-05-01T16:00:00Z,30.3288,-87.8293,47.41,1111122 
DISL,ioos:station:DISL:BSCA:1,2017-05-01T16:30:00Z,30.3288,-87.8293,50.39,1111122 
DISL,ioos:station:DISL:BSCA:1,2017-05-01T17:00:00Z,30.3288,-87.8293,43.99,1111122 
DISL,ioos:station:DISL:BSCA:1,2017-05-01T17:30:00Z,30.3288,-87.8293,45.95,1111122 
DISL,ioos:station:DISL:BSCA:1,2017-05-01T18:00:00Z,30.3288,-87.8293,44.22,1111122 
DISL,ioos:station:DISL:BSCA:1,2017-05-01T18:30:00Z,30.3288,-87.8293,43.0,1111122 
DISL,ioos:station:DISL:BSCA:1,2017-05-01T19:00:00Z,30.3288,-87.8293,40.49,1111122 
DISL,ioos:station:DISL:BSCA:1,2017-05-01T19:30:00Z,30.3288,-87.8293,37.82,1111122 
DISL,ioos:station:DISL:BSCA:1,2017-05-01T20:00:00Z,30.3288,-87.8293,39.61,1111122 
DISL,ioos:station:DISL:BSCA:1,2017-05-01T20:30:00Z,30.3288,-87.8293,45.09,1111122 
DISL,ioos:station:DISL:BSCA:1,2017-05-01T21:00:00Z,30.3288,-87.8293,39.74,1111122 
DISL,ioos:station:DISL:BSCA:1,2017-05-01T21:30:00Z,30.3288,-87.8293,40.68,1111122 
DISL,ioos:station:DISL:BSCA:1,2017-05-01T22:00:00Z,30.3288,-87.8293,47.26,1111122 
DISL,ioos:station:DISL:BSCA:1,2017-05-01T22:30:00Z,30.3288,-87.8293,56.27,1111122 
DISL,ioos:station:DISL:BSCA:1,2017-05-01T23:00:00Z,30.3288,-87.8293,51.19,1111122 
DISL,ioos:station:DISL:BSCA:1,2017-05-01T23:30:00Z,30.3288,-87.8293,51.76,1111122 
DISL,ioos:station:DISL:BSCA:1,2017-05-02T00:00:00Z,30.3288,-87.8293,51.63,1111122 
DISL,ioos:station:DISL:BSCA:1,2017-05-02T00:30:00Z,30.3288,-87.8293,57.53,1111122 
DISL,ioos:station:DISL:BSCA:1,2017-05-02T01:00:00Z,30.3288,-87.8293,56.12,1111122 
DISL,ioos:station:DISL:BSCA:1,2017-05-02T01:30:00Z,30.3288,-87.8293,58.83,1111122 
DISL,ioos:station:DISL:BSCA:1,2017-05-02T02:00:00Z,30.3288,-87.8293,57.07,1111122 
DISL,ioos:station:DISL:BSCA:1,2017-05-02T02:30:00Z,30.3288,-87.8293,61.64,1111122 
DISL,ioos:station:DISL:BSCA:1,2017-05-02T03:00:00Z,30.3288,-87.8293,65.88,1111122 
DISL,ioos:station:DISL:BSCA:1,2017-05-02T03:30:00Z,30.3288,-87.8293,63.47,1111122 
DISL,ioos:station:DISL:BSCA:1,2017-05-02T04:00:00Z,30.3288,-87.8293,66.21,1111122 
DISL,ioos:station:DISL:BSCA:1,2017-05-02T04:30:00Z,30.3288,-87.8293,67.1,1111122 
DISL,ioos:station:DISL:BSCA:1,2017-05-02T05:00:00Z,30.3288,-87.8293,67.54,1111122 
DISL,ioos:station:DISL:BSCA:1,2017-05-02T05:30:00Z,30.3288,-87.8293,55.78,1111122 
DISL,ioos:station:DISL:BSCA:1,2017-05-02T06:00:00Z,30.3288,-87.8293,57.68,1111122 
DISL,ioos:station:DISL:BSCA:1,2017-05-02T06:30:00Z,30.3288,-87.8293,75.94,1111122 
DISL,ioos:station:DISL:BSCA:1,2017-05-02T07:00:00Z,30.3288,-87.8293,87.6,1111122 
DISL,ioos:station:DISL:BSCA:1,2017-05-02T07:30:00Z,30.3288,-87.8293,88.3,1111122 
DISL,ioos:station:DISL:BSCA:1,2017-05-02T08:00:00Z,30.3288,-87.8293,84.7,1111122 
DISL,ioos:station:DISL:BSCA:1,2017-05-02T08:30:00Z,30.3288,-87.8293,83.9,1111122 
DISL,ioos:station:DISL:BSCA:1,2017-05-02T09:00:00Z,30.3288,-87.8293,83.1,1111122 
DISL,ioos:station:DISL:BSCA:1,2017-05-02T09:30:00Z,30.3288,-87.8293,79.76,1111122 
DISL,ioos:station:DISL:BSCA:1,2017-05-02T10:00:00Z,30.3288,-87.8293,83.1,1111122 
DISL,ioos:station:DISL:BSCA:1,2017-05-02T10:30:00Z,30.3288,-87.8293,85.4,1111122 
DISL,ioos:station:DISL:BSCA:1,2017-05-02T11:00:00Z,30.3288,-87.8293,84.3,1111122 
DISL,ioos:station:DISL:BSCA:1,2017-05-02T11:30:00Z,30.3288,-87.8293,81.2,1111122 
DISL,ioos:station:DISL:BSCA:1,2017-05-02T12:00:00Z,30.3288,-87.8293,68.0,1111122 
DISL,ioos:station:DISL:BSCA:1,2017-05-02T12:30:00Z,30.3288,-87.8293,59.9,1111122 
DISL,ioos:station:DISL:BSCA:1,2017-05-02T13:00:00Z,30.3288,-87.8293,59.89,1111122 
DISL,ioos:station:DISL:BSCA:1,2017-05-02T13:30:00Z,30.3288,-87.8293,56.02,1111122 
DISL,ioos:station:DISL:BSCA:1,2017-05-02T14:00:00Z,30.3288,-87.8293,52.73,1111122 
DISL,ioos:station:DISL:BSCA:1,2017-05-02T14:30:00Z,30.3288,-87.8293,46.32,1111122 
DISL,ioos:station:DISL:BSCA:1,2017-05-02T15:00:00Z,30.3288,-87.8293,50.08,1111122 
DISL,ioos:station:DISL:BSCA:1,2017-05-02T15:30:00Z,30.3288,-87.8293,48.04,1111122 
DISL,ioos:station:DISL:BSCA:1,2017-05-02T16:00:00Z,30.3288,-87.8293,38.42,1111122 
DISL,ioos:station:DISL:BSCA:1,2017-05-02T16:30:00Z,30.3288,-87.8293,40.58,1111122 
DISL,ioos:station:DISL:BSCA:1,2017-05-02T17:00:00Z,30.3288,-87.8293,38.35,1111122 
DISL,ioos:station:DISL:BSCA:1,2017-05-02T17:30:00Z,30.3288,-87.8293,40.18,1111122 
DISL,ioos:station:DISL:BSCA:1,2017-05-02T18:00:00Z,30.3288,-87.8293,41.19,1111122 
DISL,ioos:station:DISL:BSCA:1,2017-05-02T18:30:00Z,30.3288,-87.8293,45.49,1111122 
DISL,ioos:station:DISL:BSCA:1,2017-05-02T19:00:00Z,30.3288,-87.8293,41.53,1111122 
DISL,ioos:station:DISL:BSCA:1,2017-05-02T19:30:00Z,30.3288,-87.8293,47.7,1111122 
DISL,ioos:station:DISL:BSCA:1,2017-05-02T20:00:00Z,30.3288,-87.8293,46.21,1111122 
DISL,ioos:station:DISL:BSCA:1,2017-05-02T20:30:00Z,30.3288,-87.8293,47.12,1111122 
DISL,ioos:station:DISL:BSCA:1,2017-05-02T21:00:00Z,30.3288,-87.8293,48.58,1111122 
DISL,ioos:station:DISL:BSCA:1,2017-05-02T21:30:00Z,30.3288,-87.8293,48.71,1111122 
DISL,ioos:station:DISL:BSCA:1,2017-05-02T22:00:00Z,30.3288,-87.8293,50.2,1111122 
DISL,ioos:station:DISL:BSCA:1,2017-05-02T22:30:00Z,30.3288,-87.8293,46.38,1111122 
DISL,ioos:station:DISL:BSCA:1,2017-05-02T23:00:00Z,30.3288,-87.8293,49.25,1111122 
DISL,ioos:station:DISL:BSCA:1,2017-05-02T23:30:00Z,30.3288,-87.8293,51.49,1111122 
DISL,ioos:station:DISL:BSCA:1,2017-05-03T00:00:00Z,30.3288,-87.8293,53.32,1111122 
DISL,ioos:station:DISL:BSCA:1,2017-05-03T00:30:00Z,30.3288,-87.8293,52.14,1111122 
DISL,ioos:station:DISL:BSCA:1,2017-05-03T01:00:00Z,30.3288,-87.8293,51.2,1111122 
DISL,ioos:station:DISL:BSCA:1,2017-05-03T01:30:00Z,30.3288,-87.8293,53.61,1111122 
DISL,ioos:station:DISL:BSCA:1,2017-05-03T02:00:00Z,30.3288,-87.8293,55.24,1111122 
DISL,ioos:station:DISL:BSCA:1,2017-05-03T02:30:00Z,30.3288,-87.8293,59.06,1111122 
DISL,ioos:station:DISL:BSCA:1,2017-05-03T03:00:00Z,30.3288,-87.8293,59.54,1111122 
DISL,ioos:station:DISL:BSCA:1,2017-05-03T03:30:00Z,30.3288,-87.8293,60.45,1111122 
DISL,ioos:station:DISL:BSCA:1,2017-05-03T04:00:00Z,30.3288,-87.8293,59.74,1111122 
DISL,ioos:station:DISL:BSCA:1,2017-05-03T04:30:00Z,30.3288,-87.8293,64.15,1111122 
DISL,ioos:station:DISL:BSCA:1,2017-05-03T05:00:00Z,30.3288,-87.8293,61.64,1111122 
DISL,ioos:station:DISL:BSCA:1,2017-05-03T05:30:00Z,30.3288,-87.8293,63.17,1111122 
DISL,ioos:station:DISL:BSCA:1,2017-05-03T06:00:00Z,30.3288,-87.8293,63.57,1111122 
DISL,ioos:station:DISL:BSCA:1,2017-05-03T06:30:00Z,30.3288,-87.8293,61.61,1111122 
DISL,ioos:station:DISL:BSCA:1,2017-05-03T07:00:00Z,30.3288,-87.8293,62.62,1111122 
DISL,ioos:station:DISL:BSCA:1,2017-05-03T07:30:00Z,30.3288,-87.8293,84.8,1111122 
DISL,ioos:station:DISL:BSCA:1,2017-05-03T08:00:00Z,30.3288,-87.8293,88.5,1111122 
DISL,ioos:station:DISL:BSCA:1,2017-05-03T08:30:00Z,30.3288,-87.8293,89.3,1111122 
DISL,ioos:station:DISL:BSCA:1,2017-05-03T09:00:00Z,30.3288,-87.8293,87.7,1111122 
DISL,ioos:station:DISL:BSCA:1,2017-05-03T09:30:00Z,30.3288,-87.8293,88.5,1111122 
DISL,ioos:station:DISL:BSCA:1,2017-05-03T10:00:00Z,30.3288,-87.8293,86.5,1111122 
DISL,ioos:station:DISL:BSCA:1,2017-05-03T10:30:00Z,30.3288,-87.8293,83.9,1111122 
DISL,ioos:station:DISL:BSCA:1,2017-05-03T11:00:00Z,30.3288,-87.8293,81.4,1111122 
DISL,ioos:station:DISL:BSCA:1,2017-05-03T11:30:00Z,30.3288,-87.8293,80.2,1111122 
DISL,ioos:station:DISL:BSCA:1,2017-05-03T12:00:00Z,30.3288,-87.8293,79.29,1111122 
DISL,ioos:station:DISL:BSCA:1,2017-05-03T12:30:00Z,30.3288,-87.8293,76.98,1111122 
DISL,ioos:station:DISL:BSCA:1,2017-05-03T13:00:00Z,30.3288,-87.8293,74.02,1111122 
DISL,ioos:station:DISL:BSCA:1,2017-05-03T13:30:00Z,30.3288,-87.8293,67.4,1111122 
DISL,ioos:station:DISL:BSCA:1,2017-05-03T14:00:00Z,30.3288,-87.8293,64.42,1111122 
DISL,ioos:station:DISL:BSCA:1,2017-05-03T14:30:00Z,30.3288,-87.8293,67.6,1111122 
DISL,ioos:station:DISL:BSCA:1,2017-05-03T15:00:00Z,30.3288,-87.8293,65.53,1111122 
DISL,ioos:station:DISL:BSCA:1,2017-05-03T15:30:00Z,30.3288,-87.8293,60.24,1111122 
DISL,ioos:station:DISL:BSCA:1,2017-05-03T16:00:00Z,30.3288,-87.8293,61.49,1111122 
DISL,ioos:station:DISL:BSCA:1,2017-05-03T16:30:00Z,30.3288,-87.8293,54.13,1111122 
DISL,ioos:station:DISL:BSCA:1,2017-05-03T17:00:00Z,30.3288,-87.8293,61.42,1111122 
DISL,ioos:station:DISL:BSCA:1,2017-05-03T17:30:00Z,30.3288,-87.8293,63.82,1111122 
DISL,ioos:station:DISL:BSCA:1,2017-05-03T18:00:00Z,30.3288,-87.8293,63.28,1111122 
DISL,ioos:station:DISL:BSCA:1,2017-05-03T18:30:00Z,30.3288,-87.8293,58.0,1111122 
DISL,ioos:station:DISL:BSCA:1,2017-05-03T19:00:00Z,30.3288,-87.8293,63.38,1111122 
DISL,ioos:station:DISL:BSCA:1,2017-05-03T19:30:00Z,30.3288,-87.8293,63.29,1111122 
DISL,ioos:station:DISL:BSCA:1,2017-05-03T20:00:00Z,30.3288,-87.8293,71.22,1111122 
DISL,ioos:station:DISL:BSCA:1,2017-05-03T20:30:00Z,30.3288,-87.8293,71.77,1111122 
DISL,ioos:station:DISL:BSCA:1,2017-05-03T21:00:00Z,30.3288,-87.8293,66.42,1111122 
DISL,ioos:station:DISL:BSCA:1,2017-05-03T21:30:00Z,30.3288,-87.8293,68.72,1111122 
DISL,ioos:station:DISL:BSCA:1,2017-05-03T22:00:00Z,30.3288,-87.8293,78.72,1111122 
DISL,ioos:station:DISL:BSCA:1,2017-05-03T22:30:00Z,30.3288,-87.8293,77.26,1111122 
DISL,ioos:station:DISL:BSCA:1,2017-05-03T23:00:00Z,30.3288,-87.8293,85.9,1111122 
DISL,ioos:station:DISL:BSCA:1,2017-05-03T23:30:00Z,30.3288,-87.8293,84.4,1111122 
DISL,ioos:station:DISL:BSCA:1,2017-05-04T00:00:00Z,30.3288,-87.8293,80.9,1111122 
DISL,ioos:station:DISL:BSCA:1,2017-05-04T00:30:00Z,30.3288,-87.8293,84.6,1111122 
DISL,ioos:station:DISL:BSCA:1,2017-05-04T01:00:00Z,30.3288,-87.8293,67.38,1111122 
DISL,ioos:station:DISL:BSCA:1,2017-05-04T01:30:00Z,30.3288,-87.8293,74.32,1111122 
DISL,ioos:station:DISL:BSCA:1,2017-05-04T02:00:00Z,30.3288,-87.8293,74.21,1111122 
DISL,ioos:station:DISL:BSCA:1,2017-05-04T02:30:00Z,30.3288,-87.8293,67.3,1111122 
DISL,ioos:station:DISL:BSCA:1,2017-05-04T03:00:00Z,30.3288,-87.8293,71.5,1111122 
DISL,ioos:station:DISL:BSCA:1,2017-05-04T03:30:00Z,30.3288,-87.8293,69.5,1111122 
DISL,ioos:station:DISL:BSCA:1,2017-05-04T04:00:00Z,30.3288,-87.8293,88.5,1111122 
DISL,ioos:station:DISL:BSCA:1,2017-05-04T04:30:00Z,30.3288,-87.8293,81.5,1111122 
DISL,ioos:station:DISL:BSCA:1,2017-05-04T05:00:00Z,30.3288,-87.8293,79.98,1111122 
DISL,ioos:station:DISL:BSCA:1,2017-05-04T05:30:00Z,30.3288,-87.8293,88.1,1111122 
DISL,ioos:station:DISL:BSCA:1,2017-05-04T06:00:00Z,30.3288,-87.8293,87.3,1111122 
DISL,ioos:station:DISL:BSCA:1,2017-05-04T06:30:00Z,30.3288,-87.8293,93.4,1111122 
DISL,ioos:station:DISL:BSCA:1,2017-05-04T07:00:00Z,30.3288,-87.8293,94.8,1111122 
DISL,ioos:station:DISL:BSCA:1,2017-05-04T07:30:00Z,30.3288,-87.8293,94.9,1111122 
DISL,ioos:station:DISL:BSCA:1,2017-05-04T08:00:00Z,30.3288,-87.8293,94.4,1111122 
DISL,ioos:station:DISL:BSCA:1,2017-05-04T08:30:00Z,30.3288,-87.8293,95.0,1111122 
DISL,ioos:station:DISL:BSCA:1,2017-05-04T09:00:00Z,30.3288,-87.8293,95.2,1111122 
DISL,ioos:station:DISL:BSCA:1,2017-05-04T09:30:00Z,30.3288,-87.8293,96.4,1111122 
DISL,ioos:station:DISL:BSCA:1,2017-05-04T10:00:00Z,30.3288,-87.8293,96.1,1111122 
DISL,ioos:station:DISL:BSCA:1,2017-05-04T10:30:00Z,30.3288,-87.8293,93.8,1111122 
DISL,ioos:station:DISL:BSCA:1,2017-05-04T11:00:00Z,30.3288,-87.8293,91.9,1111122 
DISL,ioos:station:DISL:BSCA:1,2017-05-04T11:30:00Z,30.3288,-87.8293,92.7,1111122 
DISL,ioos:station:DISL:BSCA:1,2017-05-04T12:00:00Z,30.3288,-87.8293,90.7,1111122 
DISL,ioos:station:DISL:BSCA:1,2017-05-04T12:30:00Z,30.3288,-87.8293,86.4,1111122 
DISL,ioos:station:DISL:BSCA:1,2017-05-04T13:00:00Z,30.3288,-87.8293,77.08,1111122 
DISL,ioos:station:DISL:BSCA:1,2017-05-04T13:30:00Z,30.3288,-87.8293,79.14,1111122 
DISL,ioos:station:DISL:BSCA:1,2017-05-04T14:00:00Z,30.3288,-87.8293,79.16,1111122 
DISL,ioos:station:DISL:BSCA:1,2017-05-04T14:30:00Z,30.3288,-87.8293,75.6,1111122 
DISL,ioos:station:DISL:BSCA:1,2017-05-04T15:00:00Z,30.3288,-87.8293,73.6,1111122 
DISL,ioos:station:DISL:BSCA:1,2017-05-04T15:30:00Z,30.3288,-87.8293,73.13,1111122 
DISL,ioos:station:DISL:BSCA:1,2017-05-04T16:00:00Z,30.3288,-87.8293,68.79,1111122 
DISL,ioos:station:DISL:BSCA:1,2017-05-04T16:30:00Z,30.3288,-87.8293,70.59,1111122 
DISL,ioos:station:DISL:BSCA:1,2017-05-04T17:00:00Z,30.3288,-87.8293,78.99,1111122 
DISL,ioos:station:DISL:BSCA:1,2017-05-04T17:30:00Z,30.3288,-87.8293,83.9,1111122 
DISL,ioos:station:DISL:BSCA:1,2017-05-04T18:00:00Z,30.3288,-87.8293,78.31,1111122 
DISL,ioos:station:DISL:BSCA:1,2017-05-04T18:30:00Z,30.3288,-87.8293,80.9,1111122 
DISL,ioos:station:DISL:BSCA:1,2017-05-04T19:00:00Z,30.3288,-87.8293,79.33,1111122 
DISL,ioos:station:DISL:BSCA:1,2017-05-04T19:30:00Z,30.3288,-87.8293,71.7,1111122 
DISL,ioos:station:DISL:BSCA:1,2017-05-04T20:00:00Z,30.3288,-87.8293,89.1,1111122 
DISL,ioos:station:DISL:BSCA:1,2017-05-04T20:30:00Z,30.3288,-87.8293,80.8,1111122 
DISL,ioos:station:DISL:BSCA:1,2017-05-04T21:00:00Z,30.3288,-87.8293,83.9,1111122 
DISL,ioos:station:DISL:BSCA:1,2017-05-04T21:30:00Z,30.3288,-87.8293,85.4,1111122 
DISL,ioos:station:DISL:BSCA:1,2017-05-04T22:00:00Z,30.3288,-87.8293,76.58,1111122 
DISL,ioos:station:DISL:BSCA:1,2017-05-04T22:30:00Z,30.3288,-87.8293,62.52,1111122 
DISL,ioos:station:DISL:BSCA:1,2017-05-04T23:00:00Z,30.3288,-87.8293,64.32,1111122 
DISL,ioos:station:DISL:BSCA:1,2017-05-04T23:30:00Z,30.3288,-87.8293,70.25,1111122 
DISL,ioos:station:DISL:BSCA:1,2017-05-05T00:00:00Z,30.3288,-87.8293,59.0,1111122 
DISL,ioos:station:DISL:BSCA:1,2017-05-05T00:30:00Z,30.3288,-87.8293,63.76,1111122 
DISL,ioos:station:DISL:BSCA:1,2017-05-05T01:00:00Z,30.3288,-87.8293,61.12,1111122 
DISL,ioos:station:DISL:BSCA:1,2017-05-05T01:30:00Z,30.3288,-87.8293,63.15,1111122 
DISL,ioos:station:DISL:BSCA:1,2017-05-05T02:00:00Z,30.3288,-87.8293,68.31,1111122 
DISL,ioos:station:DISL:BSCA:1,2017-05-05T02:30:00Z,30.3288,-87.8293,67.32,1111122 
DISL,ioos:station:DISL:BSCA:1,2017-05-05T03:00:00Z,30.3288,-87.8293,67.19,1111122 
DISL,ioos:station:DISL:BSCA:1,2017-05-05T03:30:00Z,30.3288,-87.8293,71.86,1111122 
DISL,ioos:station:DISL:BSCA:1,2017-05-05T04:00:00Z,30.3288,-87.8293,68.07,1111122 
DISL,ioos:station:DISL:BSCA:1,2017-05-05T04:30:00Z,30.3288,-87.8293,69.31,1111122 
DISL,ioos:station:DISL:BSCA:1,2017-05-05T05:00:00Z,30.3288,-87.8293,66.29,1111122 
DISL,ioos:station:DISL:BSCA:1,2017-05-05T05:30:00Z,30.3288,-87.8293,68.26,1111122 
DISL,ioos:station:DISL:BSCA:1,2017-05-05T06:00:00Z,30.3288,-87.8293,74.87,1111122 
DISL,ioos:station:DISL:BSCA:1,2017-05-05T06:30:00Z,30.3288,-87.8293,68.77,1111122 
DISL,ioos:station:DISL:BSCA:1,2017-05-05T07:00:00Z,30.3288,-87.8293,67.21,1111122 
DISL,ioos:station:DISL:BSCA:1,2017-05-05T07:30:00Z,30.3288,-87.8293,70.7,1111122 
DISL,ioos:station:DISL:BSCA:1,2017-05-05T08:00:00Z,30.3288,-87.8293,69.65,1111122 
DISL,ioos:station:DISL:BSCA:1,2017-05-05T08:30:00Z,30.3288,-87.8293,73.55,1111122 
DISL,ioos:station:DISL:BSCA:1,2017-05-05T09:00:00Z,30.3288,-87.8293,69.62,1111122 
DISL,ioos:station:DISL:BSCA:1,2017-05-05T09:30:00Z,30.3288,-87.8293,74.6,1111122 
DISL,ioos:station:DISL:BSCA:1,2017-05-05T10:00:00Z,30.3288,-87.8293,70.23,1111122 
DISL,ioos:station:DISL:BSCA:1,2017-05-05T10:30:00Z,30.3288,-87.8293,68.26,1111122 
DISL,ioos:station:DISL:BSCA:1,2017-05-05T11:00:00Z,30.3288,-87.8293,68.4,1111122 
DISL,ioos:station:DISL:BSCA:1,2017-05-05T11:30:00Z,30.3288,-87.8293,64.6,1111122 
DISL,ioos:station:DISL:BSCA:1,2017-05-05T12:00:00Z,30.3288,-87.8293,67.96,1111122 
DISL,ioos:station:DISL:BSCA:1,2017-05-05T12:30:00Z,30.3288,-87.8293,64.87,1111122 
DISL,ioos:station:DISL:BSCA:1,2017-05-05T13:00:00Z,30.3288,-87.8293,66.63,1111122 
DISL,ioos:station:DISL:BSCA:1,2017-05-05T13:30:00Z,30.3288,-87.8293,65.98,1111122 
DISL,ioos:station:DISL:BSCA:1,2017-05-05T14:00:00Z,30.3288,-87.8293,64.17,1111122 
DISL,ioos:station:DISL:BSCA:1,2017-05-05T14:30:00Z,30.3288,-87.8293,62.61,1111122 
DISL,ioos:station:DISL:BSCA:1,2017-05-05T15:00:00Z,30.3288,-87.8293,56.44,1111122 
DISL,ioos:station:DISL:BSCA:1,2017-05-05T15:30:00Z,30.3288,-87.8293,52.27,1111122 
DISL,ioos:station:DISL:BSCA:1,2017-05-05T16:00:00Z,30.3288,-87.8293,52.07,1111122 
DISL,ioos:station:DISL:BSCA:1,2017-05-05T16:30:00Z,30.3288,-87.8293,50.14,1111122 
DISL,ioos:station:DISL:BSCA:1,2017-05-05T17:00:00Z,30.3288,-87.8293,48.68,1111122 
DISL,ioos:station:DISL:BSCA:1,2017-05-05T17:30:00Z,30.3288,-87.8293,46.75,1111122 
DISL,ioos:station:DISL:BSCA:1,2017-05-05T18:00:00Z,30.3288,-87.8293,54.47,1111122 
DISL,ioos:station:DISL:BSCA:1,2017-05-05T18:30:00Z,30.3288,-87.8293,52.85,1111122 
DISL,ioos:station:DISL:BSCA:1,2017-05-05T19:00:00Z,30.3288,-87.8293,56.47,1111122 
DISL,ioos:station:DISL:BSCA:1,2017-05-05T19:30:00Z,30.3288,-87.8293,53.11,1111122 
DISL,ioos:station:DISL:BSCA:1,2017-05-05T20:00:00Z,30.3288,-87.8293,58.33,1111122 
DISL,ioos:station:DISL:BSCA:1,2017-05-05T20:30:00Z,30.3288,-87.8293,57.68,1111122 
DISL,ioos:station:DISL:BSCA:1,2017-05-05T21:00:00Z,30.3288,-87.8293,48.57,1111122 
DISL,ioos:station:DISL:BSCA:1,2017-05-05T21:30:00Z,30.3288,-87.8293,48.46,1111122 
DISL,ioos:station:DISL:BSCA:1,2017-05-05T22:00:00Z,30.3288,-87.8293,51.95,1111122 
DISL,ioos:station:DISL:BSCA:1,2017-05-05T22:30:00Z,30.3288,-87.8293,42.83,1111122 
DISL,ioos:station:DISL:BSCA:1,2017-05-05T23:00:00Z,30.3288,-87.8293,44.46,1111122 
DISL,ioos:station:DISL:BSCA:1,2017-05-05T23:30:00Z,30.3288,-87.8293,41.27,1111122 
DISL,ioos:station:DISL:BSCA:1,2017-05-06T00:00:00Z,30.3288,-87.8293,39.11,1111122 
DISL,ioos:station:DISL:BSCA:1,2017-05-06T00:30:00Z,30.3288,-87.8293,46.9,1111122 
DISL,ioos:station:DISL:BSCA:1,2017-05-06T01:00:00Z,30.3288,-87.8293,42.26,1111122 
DISL,ioos:station:DISL:BSCA:1,2017-05-06T01:30:00Z,30.3288,-87.8293,42.43,1111122 
DISL,ioos:station:DISL:BSCA:1,2017-05-06T02:00:00Z,30.3288,-87.8293,41.89,1111122 
DISL,ioos:station:DISL:BSCA:1,2017-05-06T02:30:00Z,30.3288,-87.8293,48.4,1111122 
DISL,ioos:station:DISL:BSCA:1,2017-05-06T03:00:00Z,30.3288,-87.8293,43.83,1111122 
DISL,ioos:station:DISL:BSCA:1,2017-05-06T03:30:00Z,30.3288,-87.8293,47.08,1111122 
DISL,ioos:station:DISL:BSCA:1,2017-05-06T04:00:00Z,30.3288,-87.8293,44.98,1111122 
DISL,ioos:station:DISL:BSCA:1,2017-05-06T04:30:00Z,30.3288,-87.8293,49.93,1111122 
DISL,ioos:station:DISL:BSCA:1,2017-05-06T05:00:00Z,30.3288,-87.8293,48.81,1111122 
DISL,ioos:station:DISL:BSCA:1,2017-05-06T05:30:00Z,30.3288,-87.8293,48.17,1111122 
DISL,ioos:station:DISL:BSCA:1,2017-05-06T06:00:00Z,30.3288,-87.8293,51.42,1111122 
DISL,ioos:station:DISL:BSCA:1,2017-05-06T06:30:00Z,30.3288,-87.8293,53.15,1111122 
DISL,ioos:station:DISL:BSCA:1,2017-05-06T07:00:00Z,30.3288,-87.8293,55.56,1111122 
DISL,ioos:station:DISL:BSCA:1,2017-05-06T07:30:00Z,30.3288,-87.8293,60.58,1111122 
DISL,ioos:station:DISL:BSCA:1,2017-05-06T08:00:00Z,30.3288,-87.8293,52.95,1111122 
DISL,ioos:station:DISL:BSCA:1,2017-05-06T08:30:00Z,30.3288,-87.8293,54.54,1111122 
DISL,ioos:station:DISL:BSCA:1,2017-05-06T09:00:00Z,30.3288,-87.8293,55.08,1111122 
DISL,ioos:station:DISL:BSCA:1,2017-05-06T09:30:00Z,30.3288,-87.8293,60.54,1111122 
DISL,ioos:station:DISL:BSCA:1,2017-05-06T10:00:00Z,30.3288,-87.8293,64.2,1111122 
DISL,ioos:station:DISL:BSCA:1,2017-05-06T10:30:00Z,30.3288,-87.8293,67.22,1111122 
DISL,ioos:station:DISL:BSCA:1,2017-05-06T11:00:00Z,30.3288,-87.8293,69.91,1111122 
DISL,ioos:station:DISL:BSCA:1,2017-05-06T11:30:00Z,30.3288,-87.8293,66.97,1111122 
DISL,ioos:station:DISL:BSCA:1,2017-05-06T12:00:00Z,30.3288,-87.8293,69.21,1111122 
DISL,ioos:station:DISL:BSCA:1,2017-05-06T12:30:00Z,30.3288,-87.8293,69.91,1111122 
DISL,ioos:station:DISL:BSCA:1,2017-05-06T13:00:00Z,30.3288,-87.8293,66.24,1111122 
DISL,ioos:station:DISL:BSCA:1,2017-05-06T13:30:00Z,30.3288,-87.8293,67.36,1111122 
DISL,ioos:station:DISL:BSCA:1,2017-05-06T14:00:00Z,30.3288,-87.8293,64.34,1111122 
DISL,ioos:station:DISL:BSCA:1,2017-05-06T14:30:00Z,30.3288,-87.8293,68.14,1111122 
DISL,ioos:station:DISL:BSCA:1,2017-05-06T15:00:00Z,30.3288,-87.8293,63.29,1111122 
DISL,ioos:station:DISL:BSCA:1,2017-05-06T15:30:00Z,30.3288,-87.8293,62.1,1111122 
DISL,ioos:station:DISL:BSCA:1,2017-05-06T16:00:00Z,30.3288,-87.8293,47.45,1111122 
DISL,ioos:station:DISL:BSCA:1,2017-05-06T16:30:00Z,30.3288,-87.8293,40.47,1111122 
DISL,ioos:station:DISL:BSCA:1,2017-05-06T17:00:00Z,30.3288,-87.8293,38.12,1111122 
DISL,ioos:station:DISL:BSCA:1,2017-05-06T17:30:00Z,30.3288,-87.8293,44.26,1111122 
DISL,ioos:station:DISL:BSCA:1,2017-05-06T18:00:00Z,30.3288,-87.8293,41.61,1111122 
DISL,ioos:station:DISL:BSCA:1,2017-05-06T18:30:00Z,30.3288,-87.8293,49.75,1111122 
DISL,ioos:station:DISL:BSCA:1,2017-05-06T19:00:00Z,30.3288,-87.8293,54.69,1111122 
DISL,ioos:station:DISL:BSCA:1,2017-05-06T19:30:00Z,30.3288,-87.8293,50.76,1111122 
DISL,ioos:station:DISL:BSCA:1,2017-05-06T20:00:00Z,30.3288,-87.8293,53.07,1111122 
DISL,ioos:station:DISL:BSCA:1,2017-05-06T20:30:00Z,30.3288,-87.8293,58.9,1111122 
DISL,ioos:station:DISL:BSCA:1,2017-05-06T21:00:00Z,30.3288,-87.8293,59.17,1111122 
DISL,ioos:station:DISL:BSCA:1,2017-05-06T21:30:00Z,30.3288,-87.8293,50.25,1111122 
DISL,ioos:station:DISL:BSCA:1,2017-05-06T22:00:00Z,30.3288,-87.8293,52.25,1111122 
DISL,ioos:station:DISL:BSCA:1,2017-05-06T22:30:00Z,30.3288,-87.8293,51.47,1111122 
DISL,ioos:station:DISL:BSCA:1,2017-05-06T23:00:00Z,30.3288,-87.8293,57.23,1111122 
DISL,ioos:station:DISL:BSCA:1,2017-05-06T23:30:00Z,30.3288,-87.8293,57.91,1111122 
DISL,ioos:station:DISL:BSCA:1,2017-05-07T00:00:00Z,30.3288,-87.8293,63.5,1111122 